Location: Nitra
(0.0000°N, 18.0833°E)
Time: 21:25:07
(UTC+02:00)

A-11 Canister half - Pass Details

Date: 08 April 2023
Orbit: 1526 x 1682 km, 47.3° (Epoch: 08 June)

Event Time Altitude Azimuth Distance (km) Brightness Sun altitude
Rises 00:35:46 0° 275° (W) 4,718 - -82.2°
Reaches altitude 10° 00:41:24 10° 249° (WSW) 3,711 - -82.7°
Maximum altitude 00:45:03 13° 225° (SW) 3,486 - -82.9°
Drops below altitude 10° 00:48:43 10° 201° (SSW) 3,694 - -83.0°
Sets 00:54:22 0° 174° (S) 4,676 - -82.9°
